| time (UTC) | temp F | wind direction | speed knots | gust knots | rain 1hr in | rain 24hr in | rain mn in | humidity % | barometer mb |
| 20260507064917 | 51 | 156 | 3.5 | 5.2 | 0.00 | 0.00 | 0.00 | 80 | 1015.8 |
| 20260507063517 | 50 | 152 | 3.5 | 6.1 | 0.00 | 0.00 | 0.00 | 82 | 1015.7 |
| 20260507063417 | 50 | 151 | 3.5 | 6.1 | 0.00 | 0.00 | 0.00 | 82 | 1015.7 |
| 20260507061917 | 48 | 153 | 3.5 | 4.3 | 0.00 | 0.00 | 0.00 | 87 | 1009.9 |
| 20260507060517 | 47 | 152 | 3.5 | 4.3 | 0.00 | 0.00 | 0.00 | 88 | 1009.7 |
| 20260507060417 | 47 | 152 | 3.5 | 4.3 | 0.00 | 0.00 | 0.00 | 88 | 1009.7 |
| 20260507054917 | 46 | 151 | 3.5 | 5.2 | 0.00 | 0.00 | 0.00 | 89 | 1015.6 |
| 20260507053517 | 46 | 148 | 3.5 | 4.3 | 0.00 | 0.00 | 0.00 | 89 | 1015.5 |
| 20260507053417 | 46 | 147 | 3.5 | 4.3 | 0.00 | 0.00 | 0.00 | 89 | 1015.5 |
| 20260507051917 | 46 | 151 | 4.3 | 5.2 | 0.00 | 0.00 | 0.00 | 88 | 1015.5 |
| 20260507050517 | 46 | 145 | 3.5 | 5.2 | 0.00 | 0.00 | 0.00 | 88 | 1009.4 |
| 20260507050417 | 46 | 143 | 3.5 | 4.3 | 0.00 | 0.00 | 0.00 | 88 | 1009.4 |
| 20260507044917 | 45 | 141 | 3.5 | 5.2 | 0.00 | 0.00 | 0.00 | 88 | 1009.6 |
| 20260507043517 | 45 | 147 | 3.5 | 4.3 | 0.00 | 0.00 | 0.00 | 87 | 1015.1 |
| 20260507043417 | 45 | 146 | 3.5 | 4.3 | 0.00 | 0.00 | 0.00 | 87 | 1015.2 |
| 20260507041917 | 46 | 139 | 3.5 | 4.3 | 0.00 | 0.00 | 0.00 | 87 | 1015.3 |
| 20260507040517 | 46 | 142 | 3.5 | 4.3 | 0.00 | 0.00 | 0.00 | 87 | 1009.1 |
| 20260507040417 | 46 | 142 | 3.5 | 4.3 | 0.00 | 0.00 | 0.00 | 87 | 1009.1 |
| 20260507034917 | 46 | 131 | 3.5 | 5.2 | 0.00 | 0.00 | 0.00 | 87 | 1009.3 |
| 20260507033517 | 46 | 133 | 3.5 | 5.2 | 0.00 | 0.00 | 0.00 | 88 | 1009.1 |
| 20260507033417 | 46 | 133 | 3.5 | 5.2 | 0.00 | 0.00 | 0.00 | 88 | 1009.1 |
| 20260507031917 | 46 | 139 | 3.5 | 4.3 | 0.00 | 0.00 | 0.00 | 87 | 1009.2 |
| 20260507030517 | 46 | 134 | 3.5 | 5.2 | 0.00 | 0.00 | 0.00 | 87 | 1015.2 |
| 20260507030417 | 46 | 136 | 3.5 | 5.2 | 0.00 | 0.00 | 0.00 | 87 | 1015.0 |
| 20260507024917 | 46 | 136 | 3.5 | 5.2 | 0.00 | 0.00 | 0.00 | 86 | 1009.0 |
| 20260507023517 | 46 | 138 | 3.5 | 4.3 | 0.00 | 0.00 | 0.00 | 85 | 1014.9 |
| 20260507023417 | 46 | 137 | 3.5 | 4.3 | 0.00 | 0.00 | 0.00 | 85 | 1015.0 |
| 20260507021917 | 46 | 146 | 3.5 | 5.2 | 0.00 | 0.00 | 0.00 | 85 | 1008.9 |
| 20260507020517 | 46 | 147 | 3.5 | 4.3 | 0.00 | 0.00 | 0.00 | 84 | 1014.9 |
| 20260507020417 | 46 | 147 | 3.5 | 4.3 | 0.00 | 0.00 | 0.00 | 84 | 1014.8 |
| 20260507014917 | 47 | 147 | 3.5 | 4.3 | 0.00 | 0.00 | 0.00 | 83 | 1008.7 |
| 20260507013517 | 47 | 148 | 3.5 | 4.3 | 0.00 | 0.00 | 0.00 | 82 | 1014.9 |
| 20260507013417 | 47 | 149 | 3.5 | 4.3 | 0.00 | 0.00 | 0.00 | 82 | 1014.7 |
| 20260507011917 | 48 | 149 | 3.5 | 4.3 | 0.00 | 0.00 | 0.00 | 81 | 1008.7 |
| 20260507010517 | 48 | 148 | 3.5 | 4.3 | 0.00 | 0.00 | 0.00 | 80 | 1008.7 |
| 20260507010417 | 48 | 147 | 3.5 | 4.3 | 0.00 | 0.00 | 0.00 | 80 | 1008.7 |
| 20260507004917 | 49 | 148 | 3.5 | 4.3 | 0.00 | 0.00 | 0.00 | 79 | 1008.9 |
| 20260507003517 | 49 | 146 | 3.5 | 4.3 | 0.00 | 0.00 | 0.00 | 77 | 1008.9 |
| 20260507003417 | 49 | 145 | 3.5 | 4.3 | 0.00 | 0.00 | 0.00 | 77 | 1008.9 |
| 20260507001917 | 50 | 146 | 3.5 | 4.3 | 0.00 | 0.00 | 0.00 | 77 | 1008.7 |
| 20260507000517 | 50 | 150 | 3.5 | 4.3 | 0.00 | 0.00 | 0.00 | 76 | 1014.8 |
| 20260507000417 | 50 | 149 | 3.5 | 4.3 | 0.00 | 0.00 | 0.00 | 75 | 1015.0 |
| 20260506234917 | 51 | 149 | 3.5 | 4.3 | 0.00 | 0.00 | 0.00 | 73 | 1015.0 |
| 20260506233517 | 51 | 150 | 3.5 | 4.3 | 0.00 | 0.00 | 0.00 | 72 | 1009.0 |
| 20260506233417 | 51 | 150 | 3.5 | 5.2 | 0.00 | 0.00 | 0.00 | 72 | 1014.8 |
| 20260506231917 | 51 | 152 | 4.3 | 5.2 | 0.00 | 0.00 | 0.00 | 72 | 1014.7 |
| 20260506230517 | 51 | 153 | 3.5 | 5.2 | 0.00 | 0.00 | 0.00 | 71 | 1014.7 |
| 20260506230417 | 51 | 153 | 3.5 | 5.2 | 0.00 | 0.00 | 0.00 | 71 | 1014.7 |
| 20260506224917 | 51 | 154 | 3.5 | 4.3 | 0.00 | 0.00 | 0.00 | 71 | 1014.7 |
| 20260506223517 | 51 | 155 | 3.5 | 4.3 | 0.00 | 0.00 | 0.00 | 71 | 1008.8 |
| 20260506223417 | 51 | 155 | 3.5 | 4.3 | 0.00 | 0.00 | 0.00 | 71 | 1008.8 |
| 20260506221917 | 52 | 154 | 3.5 | 4.3 | 0.00 | 0.00 | 0.00 | 71 | 1014.7 |
| 20260506220517 | 52 | 152 | 3.5 | 5.2 | 0.00 | 0.00 | 0.00 | 70 | 1008.4 |
| 20260506220417 | 52 | 151 | 3.5 | 5.2 | 0.00 | 0.00 | 0.00 | 70 | 1008.4 |
| 20260506214917 | 52 | 153 | 3.5 | 5.2 | 0.00 | 0.00 | 0.00 | 69 | 1008.5 |
| 20260506213517 | 52 | 155 | 3.5 | 5.2 | 0.00 | 0.00 | 0.00 | 69 | 1008.5 |
| 20260506213417 | 52 | 155 | 3.5 | 5.2 | 0.00 | 0.00 | 0.00 | 69 | 1008.5 |
| 20260506211917 | 53 | 154 | 4.3 | 5.2 | 0.00 | 0.00 | 0.00 | 68 | 1008.4 |
| 20260506210517 | 53 | 148 | 3.5 | 5.2 | 0.00 | 0.00 | 0.00 | 68 | 1008.2 |
| 20260506210417 | 53 | 148 | 4.3 | 5.2 | 0.00 | 0.00 | 0.00 | 68 | 1008.4 |
| 20260506204917 | 53 | 152 | 3.5 | 4.3 | 0.00 | 0.00 | 0.00 | 68 | 1008.3 |
| 20260506203517 | 53 | 154 | 3.5 | 5.2 | 0.00 | 0.00 | 0.00 | 67 | 1007.9 |
| 20260506203417 | 53 | 153 | 3.5 | 5.2 | 0.00 | 0.00 | 0.00 | 67 | 1008.3 |
| 20260506201917 | 53 | 154 | 3.5 | 5.2 | 0.00 | 0.00 | 0.00 | 67 | 1008.0 |
| 20260506200517 | 54 | 155 | 3.5 | 5.2 | 0.00 | 0.00 | 0.00 | 66 | 1007.9 |
| 20260506200417 | 54 | 154 | 3.5 | 5.2 | 0.00 | 0.00 | 0.00 | 66 | 1007.9 |
| 20260506194917 | 54 | 150 | 3.5 | 5.2 | 0.00 | 0.00 | 0.00 | 64 | 1007.7 |
| 20260506193517 | 54 | 150 | 3.5 | 4.3 | 0.00 | 0.00 | 0.00 | 64 | 1007.5 |
| 20260506193417 | 54 | 150 | 3.5 | 4.3 | 0.00 | 0.00 | 0.00 | 64 | 1007.7 |
| 20260506191917 | 54 | 144 | 3.5 | 4.3 | 0.00 | 0.00 | 0.00 | 62 | 1013.4 |
| 20260506190517 | 54 | 146 | 3.5 | 4.3 | 0.00 | 0.00 | 0.00 | 61 | 1013.5 |
| 20260506190417 | 54 | 146 | 3.5 | 4.3 | 0.00 | 0.00 | 0.00 | 61 | 1013.5 |
| 20260506184917 | 55 | 150 | 3.5 | 4.3 | 0.00 | 0.00 | 0.00 | 61 | 1007.2 |
| 20260506183517 | 55 | 146 | 3.5 | 4.3 | 0.00 | 0.00 | 0.00 | 61 | 1006.9 |
| 20260506183417 | 55 | 149 | 3.5 | 4.3 | 0.00 | 0.00 | 0.00 | 60 | 1006.9 |
| 20260506181917 | 55 | 134 | 2.6 | 5.2 | 0.00 | 0.00 | 0.00 | 59 | 1006.9 |
| 20260506180517 | 55 | 140 | 2.6 | 4.3 | 0.00 | 0.00 | 0.00 | 58 | 1006.9 |
| 20260506180417 | 55 | 138 | 2.6 | 4.3 | 0.00 | 0.00 | 0.00 | 58 | 1006.6 |
| 20260506174917 | 56 | 144 | 3.5 | 5.2 | 0.00 | 0.00 | 0.00 | 57 | 1006.5 |
| 20260506173517 | 56 | 149 | 3.5 | 5.2 | 0.00 | 0.00 | 0.00 | 55 | 1006.4 |
| 20260506173417 | 56 | 148 | 3.5 | 5.2 | 0.00 | 0.00 | 0.00 | 55 | 1006.4 |
| 20260506171917 | 56 | 144 | 3.5 | 5.2 | 0.00 | 0.00 | 0.00 | 55 | 1006.4 |
| 20260506170517 | 56 | 147 | 2.6 | 4.3 | 0.00 | 0.00 | 0.00 | 55 | 1012.7 |
| 20260506170417 | 56 | 147 | 3.5 | 4.3 | 0.00 | 0.00 | 0.00 | 55 | 1012.5 |
| 20260506164917 | 57 | 133 | 2.6 | 5.2 | 0.00 | 0.00 | 0.00 | 54 | 1006.3 |
| 20260506163517 | 57 | 151 | 2.6 | 5.2 | 0.00 | 0.00 | 0.00 | 55 | 1006.4 |
| 20260506163417 | 57 | 151 | 2.6 | 5.2 | 0.00 | 0.00 | 0.00 | 54 | 1006.5 |
| 20260506161917 | 57 | 142 | 2.6 | 5.2 | 0.00 | 0.00 | 0.00 | 53 | 1006.1 |
| 20260506160517 | 57 | 143 | 2.6 | 4.3 | 0.00 | 0.00 | 0.00 | 53 | 1006.3 |
| 20260506160417 | 57 | 143 | 2.6 | 4.3 | 0.00 | 0.00 | 0.00 | 53 | 1006.4 |
| 20260506154917 | 58 | 146 | 2.6 | 5.2 | 0.00 | 0.00 | 0.00 | 52 | 1006.4 |
| 20260506153517 | 58 | 136 | 3.5 | 5.2 | 0.00 | 0.00 | 0.00 | 46 | 1006.3 |
| 20260506153417 | 58 | 137 | 2.6 | 5.2 | 0.00 | 0.00 | 0.00 | 46 | 1006.3 |
| 20260506151917 | 58 | 134 | 2.6 | 5.2 | 0.00 | 0.00 | 0.00 | 48 | 1006.4 |
| 20260506150517 | 60 | 145 | 2.6 | 7.0 | 0.00 | 0.00 | 0.00 | 44 | 1006.1 |
| 20260506150417 | 60 | 146 | 2.6 | 7.0 | 0.00 | 0.00 | 0.00 | 44 | 1006.1 |
| 20260506144917 | 58 | 132 | 2.6 | 5.2 | 0.00 | 0.00 | 0.00 | 44 | 1006.3 |
| 20260506143517 | 60 | 139 | 2.6 | 5.2 | 0.00 | 0.00 | 0.00 | 44 | 1006.3 |
| 20260506143417 | 60 | 145 | 2.6 | 5.2 | 0.00 | 0.00 | 0.00 | 44 | 1006.3 |
| 20260506141917 | 59 | 148 | 2.6 | 4.3 | 0.00 | 0.00 | 0.00 | 44 | 1006.1 |
| 20260506140517 | 59 | 134 | 2.6 | 4.3 | 0.00 | 0.00 | 0.00 | 44 | 1006.3 |
| 20260506140417 | 60 | 138 | 2.6 | 4.3 | 0.00 | 0.00 | 0.00 | 44 | 1006.3 |
| 20260506134917 | 58 | 121 | 2.6 | 5.2 | 0.00 | 0.00 | 0.00 | 45 | 1006.3 |
| 20260506133517 | 60 | 143 | 2.6 | 4.3 | 0.00 | 0.00 | 0.00 | 43 | 1006.3 |
| 20260506133417 | 60 | 136 | 2.6 | 4.3 | 0.00 | 0.00 | 0.00 | 43 | 1006.3 |
| 20260506131917 | 61 | 140 | 2.6 | 5.2 | 0.00 | 0.00 | 0.00 | 42 | 1006.5 |
| 20260506130517 | 61 | 143 | 2.6 | 5.2 | 0.00 | 0.00 | 0.00 | 42 | 1006.3 |
| 20260506130417 | 61 | 146 | 2.6 | 5.2 | 0.00 | 0.00 | 0.00 | 42 | 1006.3 |
| 20260506124917 | 61 | 153 | 2.6 | 6.1 | 0.00 | 0.00 | 0.00 | 43 | 1006.2 |
| 20260506123517 | 58 | 129 | 3.5 | 7.8 | 0.00 | 0.00 | 0.00 | 45 | 1006.5 |
| 20260506123417 | 57 | 131 | 2.6 | 7.8 | 0.00 | 0.00 | 0.00 | 45 | 1006.5 |
| 20260506121917 | 59 | 140 | 2.6 | 5.2 | 0.00 | 0.00 | 0.00 | 45 | 1006.3 |
| 20260506120517 | 58 | 118 | 2.6 | 5.2 | 0.00 | 0.00 | 0.00 | 44 | 1006.4 |
| 20260506120417 | 58 | 120 | 2.6 | 5.2 | 0.00 | 0.00 | 0.00 | 45 | 1006.5 |
| 20260506114917 | 58 | 131 | 2.6 | 5.2 | 0.00 | 0.00 | 0.00 | 47 | 1006.2 |
| 20260506113517 | 59 | 132 | 2.6 | 6.1 | 0.00 | 0.00 | 0.00 | 47 | 1006.4 |
| 20260506113417 | 59 | 138 | 2.6 | 6.1 | 0.00 | 0.00 | 0.00 | 47 | 1006.6 |
| 20260506111917 | 59 | 146 | 2.6 | 5.2 | 0.00 | 0.00 | 0.00 | 48 | 1006.6 |
| 20260506110517 | 58 | 135 | 3.5 | 5.2 | 0.00 | 0.00 | 0.00 | 46 | 1006.5 |
| 20260506110417 | 58 | 133 | 3.5 | 5.2 | 0.00 | 0.00 | 0.00 | 48 | 1006.6 |
| 20260506104917 | 58 | 141 | 2.6 | 5.2 | 0.00 | 0.00 | 0.00 | 49 | 1006.6 |
| 20260506103517 | 59 | 163 | 2.6 | 4.3 | 0.00 | 0.00 | 0.00 | 49 | 1006.7 |
| 20260506103417 | 59 | 164 | 2.6 | 4.3 | 0.00 | 0.00 | 0.00 | 48 | 1006.6 |
| 20260506101917 | 57 | 139 | 2.6 | 4.3 | 0.00 | 0.00 | 0.00 | 50 | 1006.7 |
| 20260506100517 | 56 | 147 | 2.6 | 5.2 | 0.00 | 0.00 | 0.00 | 52 | 1006.8 |
| 20260506100417 | 56 | 148 | 2.6 | 5.2 | 0.00 | 0.00 | 0.00 | 52 | 1006.7 |
| 20260506093517 | 57 | 149 | 3.5 | 5.2 | 0.00 | 0.00 | 0.00 | 53 | 1006.9 |
| 20260506093417 | 57 | 151 | 3.5 | 5.2 | 0.00 | 0.00 | 0.00 | 54 | 1006.7 |
| 20260506091917 | 54 | 114 | 2.6 | 5.2 | 0.00 | 0.00 | 0.00 | 54 | 1006.8 |
| 20260506090517 | 54 | 143 | 3.5 | 5.2 | 0.00 | 0.00 | 0.00 | 57 | 1006.8 |
| 20260506090417 | 54 | 145 | 3.5 | 5.2 | 0.00 | 0.00 | 0.00 | 57 | 1006.9 |
| 20260506084917 | 53 | 129 | 3.5 | 5.2 | 0.00 | 0.00 | 0.00 | 61 | 1006.6 |
| 20260506083517 | 53 | 145 | 2.6 | 5.2 | 0.00 | 0.00 | 0.00 | 61 | 1007.0 |
| 20260506083417 | 52 | 147 | 3.5 | 5.2 | 0.00 | 0.00 | 0.00 | 61 | 1006.9 |
| 20260506081917 | 51 | 141 | 2.6 | 5.2 | 0.00 | 0.00 | 0.00 | 65 | 1006.7 |
| 20260506080517 | 52 | 152 | 3.5 | 5.2 | 0.00 | 0.00 | 0.00 | 67 | 1012.6 |
| 20260506080417 | 51 | 153 | 3.5 | 5.2 | 0.00 | 0.00 | 0.00 | 67 | 1012.8 |
| 20260506073517 | 51 | 149 | 3.5 | 5.2 | 0.00 | 0.00 | 0.00 | 70 | 1006.6 |
| 20260506073417 | 51 | 150 | 3.5 | 5.2 | 0.00 | 0.00 | 0.00 | 70 | 1006.6 |
| 20260506071917 | 50 | 136 | 2.6 | 4.3 | 0.00 | 0.00 | 0.00 | 73 | 1006.8 |
| 20260506070517 | 49 | 135 | 2.6 | 5.2 | 0.00 | 0.00 | 0.00 | 75 | 1006.6 |
| 20260506070417 | 49 | 138 | 2.6 | 5.2 | 0.00 | 0.00 | 0.00 | 76 | 1006.6 |